EN

Hourly Weather Novoukrainka

Today, 16 May, Sunday

Time Temperature Precipitation Wind Pressure Humidity
00:00 +14°C° 0 mm 1 mps 753 mmHg 77%
01:00 +14°C° 0 mm 1 mps 752 mmHg 77%
02:00 +14°C° 0 mm 1 mps 752 mmHg 77%
03:00 +14°C° 0 mm 1 mps 752 mmHg 76%
04:00 +14°C° 0 mm 1 mps 752 mmHg 76%
05:00 +14°C° 0 mm 2 mps 752 mmHg 75%
06:00 +16°C° 0 mm 2 mps 752 mmHg 69%
07:00 +18°C° 0 mm 2 mps 752 mmHg 62%
08:00 +20°C° 0 mm 2 mps 752 mmHg 55%
09:00 +21°C° 0 mm 3 mps 752 mmHg 51%
10:00 +24°C° 0 mm 3 mps 752 mmHg 47%
11:00 +25°C° 0 mm 4 mps 752 mmHg 43%
12:00 +26°C° 0 mm 3 mps 751 mmHg 41%
13:00 +26°C° 0 mm 3 mps 751 mmHg 40%
14:00 +27°C° 0 mm 3 mps 750 mmHg 38%
15:00 +27°C° 0 mm 3 mps 750 mmHg 40%
16:00 +27°C° 0 mm 3 mps 749 mmHg 42%
17:00 +26°C° 0 mm 3 mps 749 mmHg 45%
18:00 +25°C° 0 mm 3 mps 749 mmHg 51%
19:00 +22°C° 0 mm 3 mps 748 mmHg 57%
20:00 +20°C° 0 mm 3 mps 748 mmHg 64%
21:00 +19°C° 1.1 mm 4 mps 748 mmHg 72%
22:00 +17°C° 1.1 mm 5 mps 747 mmHg 80%
23:00 +17°C° 1.1 mm 6 mps 747 mmHg 88%

Tomorrow, 17 May, Monday

Time Temperature Precipitation Wind Pressure Humidity
00:00 +16°C° 0.9 mm 5 mps 747 mmHg 90%
01:00 +17°C° 0.9 mm 4 mps 746 mmHg 93%
02:00 +17°C° 0.9 mm 4 mps 746 mmHg 95%
03:00 +17°C° 0.2 mm 4 mps 746 mmHg 95%
04:00 +17°C° 0.2 mm 4 mps 745 mmHg 95%
05:00 +17°C° 0.2 mm 4 mps 745 mmHg 95%
06:00 +18°C° 0 mm 4 mps 745 mmHg 89%
07:00 +20°C° 0 mm 3 mps 745 mmHg 82%
08:00 +21°C° 0 mm 3 mps 745 mmHg 76%
09:00 +22°C° 0.2 mm 3 mps 745 mmHg 71%
10:00 +25°C° 0.2 mm 3 mps 745 mmHg 65%
11:00 +26°C° 0.2 mm 3 mps 744 mmHg 60%
12:00 +26°C° 0.4 mm 4 mps 744 mmHg 60%
13:00 +26°C° 0.4 mm 4 mps 744 mmHg 60%
14:00 +26°C° 0.4 mm 5 mps 744 mmHg 61%
15:00 +25°C° 0.3 mm 5 mps 744 mmHg 65%
16:00 +23°C° 0.3 mm 5 mps 744 mmHg 69%
17:00 +22°C° 0.3 mm 5 mps 745 mmHg 73%
18:00 +20°C° 0.4 mm 4 mps 745 mmHg 79%
19:00 +19°C° 0.4 mm 4 mps 745 mmHg 85%
20:00 +18°C° 0.4 mm 4 mps 746 mmHg 91%
21:00 +17°C° 0.1 mm 4 mps 746 mmHg 91%
22:00 +15°C° 0.1 mm 4 mps 746 mmHg 91%
23:00 +15°C° 0.1 mm 4 mps 747 mmHg 92%

Day after tomorrow, 18 May, Tuesday

Time Temperature Precipitation Wind Pressure Humidity
00:00 +15°C° 0 mm 4 mps 747 mmHg 93%
01:00 +14°C° 0 mm 4 mps 747 mmHg 94%
02:00 +14°C° 0 mm 4 mps 747 mmHg 96%
03:00 +14°C° 0 mm 4 mps 747 mmHg 95%
04:00 +14°C° 0 mm 4 mps 747 mmHg 95%
05:00 +14°C° 0 mm 4 mps 747 mmHg 94%
06:00 +15°C° 0.1 mm 4 mps 747 mmHg 90%
07:00 +16°C° 0.1 mm 5 mps 747 mmHg 86%
08:00 +17°C° 0.1 mm 5 mps 747 mmHg 82%
09:00 +19°C° 0.4 mm 6 mps 747 mmHg 77%
10:00 +21°C° 0.4 mm 7 mps 747 mmHg 72%
11:00 +22°C° 0.4 mm 7 mps 747 mmHg 67%
12:00 +22°C° 0.6 mm 7 mps 747 mmHg 65%
13:00 +22°C° 0.6 mm 7 mps 747 mmHg 63%
14:00 +22°C° 0.6 mm 7 mps 747 mmHg 62%
15:00 +21°C° 0.4 mm 7 mps 747 mmHg 64%
16:00 +20°C° 0.4 mm 7 mps 748 mmHg 67%
17:00 +20°C° 0.4 mm 7 mps 748 mmHg 69%
18:00 +17°C° 0.1 mm 5 mps 749 mmHg 73%
19:00 +17°C° 0.1 mm 4 mps 749 mmHg 77%
20:00 +14°C° 0.1 mm 3 mps 750 mmHg 82%
21:00 +13°C° 0 mm 3 mps 750 mmHg 82%
22:00 +13°C° 0 mm 3 mps 750 mmHg 83%
23:00 +13°C° 0 mm 2 mps 751 mmHg 84%

19 May, Wednesday

Time Temperature Precipitation Wind Pressure Humidity
00:00 +13°C° 0 mm 2 mps 751 mmHg 85%
01:00 +12°C° 0 mm 2 mps 751 mmHg 85%
02:00 +12°C° 0 mm 2 mps 751 mmHg 86%
03:00 +12°C° 0 mm 1 mps 751 mmHg 85%
04:00 +12°C° 0 mm 1 mps 752 mmHg 85%
05:00 +12°C° 0 mm 1 mps 752 mmHg 84%
06:00 +14°C° 0 mm 1 mps 752 mmHg 76%
07:00 +16°C° 0 mm 1 mps 752 mmHg 68%
08:00 +18°C° 0 mm 1 mps 752 mmHg 60%
09:00 +19°C° 0 mm 1 mps 752 mmHg 56%
10:00 +19°C° 0 mm 2 mps 752 mmHg 52%
11:00 +20°C° 0 mm 2 mps 752 mmHg 48%
12:00 +20°C° 0.4 mm 3 mps 752 mmHg 53%
13:00 +19°C° 0.4 mm 3 mps 752 mmHg 58%
14:00 +18°C° 0.4 mm 4 mps 752 mmHg 64%
15:00 +17°C° 0.6 mm 4 mps 752 mmHg 70%
16:00 +15°C° 0.6 mm 4 mps 752 mmHg 76%
17:00 +14°C° 0.6 mm 3 mps 753 mmHg 82%
18:00 +13°C° 0 mm 3 mps 753 mmHg 84%
19:00 +14°C° 0 mm 2 mps 753 mmHg 85%
20:00 +13°C° 0 mm 1 mps 753 mmHg 87%
21:00 +13°C° 0 mm 1 mps 754 mmHg 87%
22:00 +12°C° 0 mm 1 mps 754 mmHg 88%
23:00 +12°C° 0 mm 1 mps 754 mmHg 88%

20 May, Thursday

Time Temperature Precipitation Wind Pressure Humidity
00:00 +10°C° 0 mm 2 mps 754 mmHg 89%
01:00 +10°C° 0 mm 2 mps 754 mmHg 89%
02:00 +10°C° 0 mm 2 mps 754 mmHg 90%
03:00 +10°C° 0 mm 2 mps 754 mmHg 89%
04:00 +10°C° 0 mm 2 mps 754 mmHg 89%
05:00 +10°C° 0 mm 2 mps 754 mmHg 88%
06:00 +12°C° 0 mm 3 mps 755 mmHg 81%
07:00 +14°C° 0 mm 4 mps 755 mmHg 74%
08:00 +15°C° 0 mm 4 mps 755 mmHg 67%
09:00 +17°C° 0 mm 4 mps 755 mmHg 62%
10:00 +18°C° 0 mm 4 mps 755 mmHg 56%
11:00 +19°C° 0 mm 4 mps 755 mmHg 51%
12:00 +20°C° 0 mm 4 mps 754 mmHg 48%
13:00 +21°C° 0 mm 4 mps 754 mmHg 46%
14:00 +21°C° 0 mm 4 mps 754 mmHg 43%
15:00 +21°C° 0 mm 4 mps 754 mmHg 46%
16:00 +20°C° 0 mm 4 mps 754 mmHg 50%
17:00 +20°C° 0 mm 4 mps 754 mmHg 53%
18:00 +17°C° 0.1 mm 5 mps 754 mmHg 58%
19:00 +16°C° 0.1 mm 5 mps 754 mmHg 63%
20:00 +15°C° 0.1 mm 5 mps 754 mmHg 69%
21:00 +15°C° 0 mm 5 mps 754 mmHg 71%
22:00 +15°C° 0 mm 5 mps 754 mmHg 73%
23:00 +14°C° 0 mm 5 mps 754 mmHg 75%

21 May, Friday

Time Temperature Precipitation Wind Pressure Humidity
00:00 +14°C° 0 mm 5 mps 754 mmHg 75%
01:00 +14°C° 0 mm 5 mps 754 mmHg 76%
02:00 +14°C° 0 mm 5 mps 754 mmHg 76%
03:00 +13°C° 0 mm 5 mps 754 mmHg 78%
04:00 +13°C° 0 mm 5 mps 754 mmHg 81%
05:00 +12°C° 0 mm 5 mps 754 mmHg 83%
06:00 +13°C° 0 mm 6 mps 754 mmHg 79%
07:00 +14°C° 0 mm 6 mps 754 mmHg 75%
08:00 +15°C° 0 mm 6 mps 754 mmHg 71%
09:00 +16°C° 0 mm 6 mps 754 mmHg 68%
10:00 +17°C° 0 mm 6 mps 754 mmHg 65%
11:00 +18°C° 0 mm 7 mps 754 mmHg 61%
12:00 +20°C° 0 mm 6 mps 754 mmHg 58%
13:00 +21°C° 0 mm 6 mps 754 mmHg 55%
14:00 +22°C° 0 mm 6 mps 754 mmHg 51%
15:00 +21°C° 0 mm 6 mps 754 mmHg 53%
16:00 +21°C° 0 mm 6 mps 754 mmHg 54%
17:00 +21°C° 0 mm 5 mps 754 mmHg 55%
18:00 +19°C° 0 mm 5 mps 754 mmHg 61%
19:00 +18°C° 0 mm 4 mps 754 mmHg 66%
20:00 +15°C° 0 mm 4 mps 754 mmHg 71%
21:00 +14°C° 0 mm 4 mps 755 mmHg 72%
22:00 +14°C° 0 mm 4 mps 755 mmHg 73%
23:00 +13°C° 0 mm 4 mps 755 mmHg 73%
Show more

We Need Your Consent

Meteoprog and our Service Providers may store and access personal data such as cookies, device identifiers or other similar technologies on your device and process such data to personalise content and ads, as well as provide social media features and to analyse the traffic.

  • Store and/or access information on your device

    Cookies, device identifiers or other information can be stored or accessed on your device for the purposes indicated above.

  • Personalised ads and content, ad and content measurement, audience insights, and products development

    Ads and content can be personalised based on a profile. More data can be added to better personalise ads and content. Ad and content performance can be measured. Insights about the audience who saw the ads and content can be derived. Such data can be used to develop or improve user’s experience, systems and software.

By clicking ‘I Agree’ you will allow the use of indicated cookies, device identifiers, web beacons or other similar technologies. Your settings can be changed in the browser on your device.

For certain purposes, legitimate interests may be relied on, rather than consent. You can read more about this in our Privacy and Cookie Policy.